This is the latest recevied weather packets stored in our database for station/object KN4DS-3. If no packets are shown the sender has not sent any weather packets the latest 10 day(s).
| Time | Temp. | Humidity | Pressure | Rain* | Wind** | Luminosity | Snow |
|---|---|---|---|---|---|---|---|
| 1777385704 | 17.22° C | 81% | 1024.8 hPa | 0 mm | - | - | - |
| 1777385405 | 17.78° C | 80% | 1024.1 hPa | 0 mm | - | - | - |
| 1777385104 | 17.78° C | 80% | 1023.6 hPa | 0 mm | - | - | - |
| 1777384804 | 17.22° C | 81% | 1023.1 hPa | 0 mm | - | - | - |
| 1777384504 | 17.22° C | 81% | 1023 hPa | 0 mm | - | - | - |
| 1777384205 | 17.22° C | 81% | 1022.9 hPa | 0 mm | - | - | - |
| 1777383904 | 16.67° C | 82% | 1022.8 hPa | 0 mm | - | - | - |
| 1777383604 | 16.67° C | 83% | 1022.7 hPa | 0 mm | - | - | - |
| 1777383304 | 16.11° C | 84% | 1022.6 hPa | 0 mm | - | - | - |
| 1777383005 | 16.11° C | 84% | 1022.4 hPa | 0 mm | - | - | - |
| 1777382704 | 16.11° C | 84% | 1022.5 hPa | 0 mm | - | - | - |
| 1777382405 | 16.11° C | 84% | 1022.5 hPa | 0 mm | - | - | - |
| 1777382104 | 16.11° C | 85% | 1022.5 hPa | 0 mm | - | - | - |
| 1777381804 | 15.56° C | 85% | 1022.5 hPa | 0 mm | - | - | - |
| 1777381504 | 15.56° C | 86% | 1022.9 hPa | 0 mm | - | - | - |
| 1777381204 | 15.56° C | 87% | 1022.8 hPa | 0 mm | - | - | - |
| 1777380904 | 15° C | 87% | 1022.4 hPa | 0 mm | - | - | - |
| 1777380604 | 15° C | 87% | 1022 hPa | 0 mm | - | - | - |
| 1777380304 | 15° C | 88% | 1021.9 hPa | 0 mm | - | - | - |
| 1777380004 | 14.44° C | 88% | 1021.8 hPa | 0 mm | - | - | - |
| 1777379704 | 14.44° C | 88% | 1021.8 hPa | 0 mm | - | - | - |
| 1777379405 | 14.44° C | 89% | 1021.8 hPa | 0 mm | - | - | - |
| 1777379104 | 14.44° C | 89% | 1021.8 hPa | 0 mm | - | - | - |
| 1777378805 | 13.89° C | 90% | 1021.6 hPa | 0 mm | - | - | - |
| 1777378504 | 13.89° C | 90% | 1021.5 hPa | 0 mm | - | - | - |
* Rain latest hour (hover to see other rain measurements)
** Current wind speed in m/s (hover to see current wind gust speed)